Showing default

GONETS M 22, 47229

Orbit data source: Space-Track

GONETS M 22, 47229 is a payload satellite owned by Gonets (CIS) in LEO that was launched on Thu, 03 Dec 2020 UTC via a SOYUZ-2-1B launch vehicle from the Plesetsk Missile And Space Complex (PKMTR). Payload-class satellites include a variety of spacecraft equipped with specific instruments for various scientific and technological missions. These include communications satellites like Starlink; space stations such as the ISS; scientific satellites like the Hubble; Earth observation satellites from companies like Planet Labs, Umbra, and HawkEye 360; GPS; miniature CubeSats for education and research; and military/defense satellites.

Loading next visibility...
Identifier
47229, 2020-091C
Orbit
LEO
Country
Flag of CISCIS
Related business
Manufacturer
Resehetnev ISS
Mission
Operational Commercial Communications
Bus & Motor
STRELA-3M, Unknown motor
Mass
225 kg wet, 225 kg dry
Launch date (UTC)
2020-12-03 (6 years ago)
Launch vehicle
SOYUZ-2-1B
Launch site
Plesetsk Missile And Space Complex (PKMTR)
Object type
Payload
Rocket body
Debris
Shape & HBR
Cyl + 1 Ant, 3.5 m
Radar Cross Section
1.798 m², Large (>1 m²)

Expand to show TLE details & history
Last TLE update: 21 hours ago

TLE from 21 hours ago
0 GONETS M 22
1 47229U 20091C   26172.54132271  .00000042  00000-0  22936-3 0  9990
2 47229  82.5034 299.3343 0022345 163.9947 196.1844 12.42892990251564
Epoch: 2026-06-21T12:59Z
TLE epoch observation values (Epoch: 2026-06-21T12:59:30.282Z)
Latitude
0.00005°
Longitude
-165.28198°
Altitude
1,513.963 km
Speed
7.1 km/s
True Right ascension
19h 57m 20s
True Declination
0° 00' 00"
Sunlit
Object was in full shadow at epoch
Visualization orbit readout
Latitude
Unknown
Longitude
Unknown
Altitude
Unknown
Speed
Unknown
Apparent Right ascension
Unknown
Apparent Declination
Unknown
Sunlit
N/A
Visualization observer readout
Local Sidereal Time
21:27:14
Azimuth
Unknown
Elevation
Unknown
Doppler factor
Unknown
Orbital elements
Apogee altitude
1,509.3 km
Perigee altitude
1,474.129 km
Semi-major axis
7,869.851 km
Eccentricity
0.00223
Inclination
82.5034°
RAAN
299.3343°
Arg. of periapsis
163.9947°
True anomaly
196.11322°
Mean anomaly
196.1844°
Eccentric anomaly
196.14879°
Mean motion
3.1088 °/min
Orbital period
115.8 mins
BSTAR
0.00022936
Loading maneuver chart data...
Computing Atmospheric mass density...
Loading historical data...
Loading historical data...
Loading historical data...
Loading historical data...
Loading historical data...
Loading historical data...
Loading historical data...
Other satellites on launch #91 in the year 2020 (2020-12-03 UTC)

Documentation

Showing up to 5 results
|